Location: Central Falls
(41.8900°N, 71.3929°W)
Time: 23:24:38
(UTC+00:00)

Altair - Pass Details

Date: 04 December 2023
Orbit: 1501 x 1682 km, 47.2° (Epoch: 26 February)

Event Time Altitude Azimuth Distance (km) Brightness Sun altitude
Rises 11:20:24 0° 199° (SSW) 4,862 10.2 -6.8°
Reaches altitude 10° 11:24:02 10° 189° (S) 3,854 9.8 -6.2°
Maximum altitude 11:32:14 31° 132° (SE) 2,504 9.6 -4.8°
Drops below altitude 10° 11:40:11 10° 75° (ENE) 3,745 10.3 -3.5°
Sets 11:43:37 0° 65° (ENE) 4,707 10.7 -2.9°
